TimeEST,TemperatureF,Dew PointF,Humidity,Sea Level PressureIn,VisibilityMPH,Wind Direction,Wind SpeedMPH,Gust SpeedMPH,PrecipitationIn,Events,Conditions,WindDirDegrees,DateUTC
12:53 AM,23.0,19.9,88,30.40,7.0,Calm,Calm,-,N/A,,Clear,0,2013-01-09 05:53:00
1:53 AM,23.0,19.0,85,30.40,8.0,Calm,Calm,-,N/A,,Clear,0,2013-01-09 06:53:00
2:53 AM,21.9,18.0,85,30.40,7.0,Calm,Calm,-,N/A,,Clear,0,2013-01-09 07:53:00
3:53 AM,21.9,19.0,89,30.40,8.0,Calm,Calm,-,N/A,,Clear,0,2013-01-09 08:53:00
4:53 AM,24.1,19.9,84,30.38,7.0,Calm,Calm,-,N/A,,Mostly Cloudy,0,2013-01-09 09:53:00
5:53 AM,24.1,19.0,81,30.39,9.0,Calm,Calm,-,N/A,,Scattered Clouds,0,2013-01-09 10:53:00
6:53 AM,23.0,18.0,81,30.40,7.0,Calm,Calm,-,N/A,,Scattered Clouds,0,2013-01-09 11:53:00
7:53 AM,23.0,19.9,88,30.41,7.0,Calm,Calm,-,N/A,,Clear,0,2013-01-09 12:53:00
8:53 AM,30.0,26.1,85,30.40,5.0,Calm,Calm,-,N/A,,Clear,0,2013-01-09 13:53:00
9:53 AM,41.0,36.0,82,30.40,7.0,Calm,Calm,-,N/A,,Clear,0,2013-01-09 14:53:00
10:53 AM,46.9,32.0,56,30.36,8.0,South,4.6,-,N/A,,Clear,180,2013-01-09 15:53:00
11:53 AM,46.9,35.1,63,30.30,7.0,SSE,5.8,-,N/A,,Clear,160,2013-01-09 16:53:00
12:53 PM,48.0,37.0,66,30.27,8.0,SSW,8.1,-,N/A,,Clear,200,2013-01-09 17:53:00
1:53 PM,48.0,37.9,68,30.25,10.0,SW,10.4,-,N/A,,Scattered Clouds,230,2013-01-09 18:53:00
2:53 PM,48.0,37.0,66,30.24,10.0,SSW,9.2,-,N/A,,Overcast,210,2013-01-09 19:53:00
3:53 PM,46.0,37.0,71,30.17,10.0,South,9.2,-,N/A,,Overcast,180,2013-01-09 20:53:00
4:53 PM,45.0,39.0,80,30.16,10.0,SW,9.2,17.3,0.00,,Mostly Cloudy,220,2013-01-09 21:53:00
5:53 PM,46.9,39.9,77,30.17,10.0,WSW,13.8,21.9,N/A,,Overcast,240,2013-01-09 22:53:00
6:53 PM,48.0,39.9,74,30.16,10.0,WSW,15.0,23.0,N/A,,Mostly Cloudy,240,2013-01-09 23:53:00
7:53 PM,46.9,39.9,77,30.17,10.0,WSW,16.1,23.0,N/A,,Clear,250,2013-01-10 00:53:00
9:53 PM,46.0,36.0,68,30.18,10.0,West,12.7,-,N/A,,Clear,260,2013-01-10 02:53:00
10:53 PM,45.0,34.0,65,30.19,10.0,West,8.1,-,N/A,,Clear,260,2013-01-10 03:53:00
11:53 PM,45.0,32.0,60,30.19,10.0,West,11.5,-,N/A,,Clear,260,2013-01-10 04:53:00